Terminal Aerodrome Forecast
Issued by NWS

Home | Current Version | Previous Version | Graphics & Text | Print | Product List | Glossary On
Versions: 1 2 3 4 5 6 7 8 9 10 11 12 13 14 15
362
FTUS42 KMHX 220501 AAA
TAFPGV
TAF AMD
KPGV 220501Z 2205/2224 08005KT 5SM SHRA SCT030 BKN060
      TEMPO 2205/2207 3SM TSRA BKN030CB
     FM220800 04006KT P6SM -SHRA OVC040
     FM221400 01013KT P6SM BKN200
      AMD LTD TO CLD VIS AND WIND=

USA.gov is the U.S. government's official web portal to all federal, state and local government web resources and services.